TimeCST,TemperatureF,Dew PointF,Humidity,Sea Level PressureIn,VisibilityMPH,Wind Direction,Wind SpeedMPH,Gust SpeedMPH,PrecipitationIn,Events,Conditions,WindDirDegrees,DateUTC
12:15 AM,74.3,65.8,75,29.85,10.0,SE,15.0,26.5,N/A,,Clear,140,2012-11-11 06:15:00
12:35 AM,74.3,66.2,76,29.85,10.0,SE,16.1,26.5,N/A,,Clear,140,2012-11-11 06:35:00
12:55 AM,74.1,66.2,76,29.84,10.0,SSE,16.1,25.3,N/A,,Clear,150,2012-11-11 06:55:00
1:15 AM,73.8,66.0,77,29.82,10.0,SE,13.8,23.0,N/A,,Clear,140,2012-11-11 07:15:00
1:35 AM,73.9,66.2,77,29.82,10.0,SSE,16.1,29.9,N/A,,Clear,150,2012-11-11 07:35:00
1:55 AM,73.9,66.2,77,29.81,10.0,SE,13.8,26.5,N/A,,Clear,140,2012-11-11 07:55:00
2:15 AM,73.8,65.8,76,29.81,10.0,SSE,13.8,25.3,N/A,,Clear,150,2012-11-11 08:15:00
2:35 AM,73.6,65.7,76,29.80,10.0,SSE,12.7,23.0,N/A,,Clear,150,2012-11-11 08:35:00
2:55 AM,73.4,65.5,76,29.80,10.0,SE,15.0,23.0,N/A,,Clear,140,2012-11-11 08:55:00
3:15 AM,73.4,65.3,76,29.79,10.0,SSE,18.4,23.0,N/A,,Clear,150,2012-11-11 09:15:00
3:35 AM,73.0,64.8,75,29.79,10.0,SSE,15.0,21.9,N/A,,Clear,150,2012-11-11 09:35:00
3:55 AM,72.7,64.6,76,29.79,10.0,SSE,12.7,21.9,N/A,,Clear,150,2012-11-11 09:55:00
4:15 AM,72.5,64.6,76,29.79,10.0,SSE,12.7,21.9,N/A,,Clear,150,2012-11-11 10:15:00
4:35 AM,72.5,64.6,76,29.80,10.0,SSE,12.7,16.1,N/A,,Clear,150,2012-11-11 10:35:00
4:55 AM,72.5,64.4,76,29.80,10.0,SSE,13.8,17.3,N/A,,Clear,150,2012-11-11 10:55:00
5:35 AM,71.8,64.4,77,29.81,10.0,SSE,10.4,-,N/A,,Clear,150,2012-11-11 11:35:00
5:55 AM,71.8,64.4,77,29.82,10.0,SSE,11.5,17.3,N/A,,Clear,150,2012-11-11 11:55:00
6:15 AM,71.6,64.0,77,29.82,10.0,SSE,8.1,-,N/A,,Clear,150,2012-11-11 12:15:00
6:55 AM,70.7,64.0,79,29.84,10.0,SSE,5.8,-,N/A,,Clear,150,2012-11-11 12:55:00
7:35 AM,72.0,64.4,77,29.85,10.0,SE,4.6,-,N/A,,Clear,140,2012-11-11 13:35:00
8:15 AM,74.5,63.5,68,29.86,10.0,SSE,13.8,-,N/A,,Clear,160,2012-11-11 14:15:00
8:35 AM,76.3,63.5,64,29.86,10.0,SSE,10.4,17.3,N/A,,Clear,150,2012-11-11 14:35:00
8:55 AM,77.5,62.4,59,29.86,10.0,SSE,13.8,23.0,N/A,,Clear,160,2012-11-11 14:55:00
9:15 AM,78.8,61.7,56,29.86,10.0,South,17.3,21.9,N/A,,Clear,170,2012-11-11 15:15:00
9:55 AM,81.5,61.0,50,29.86,10.0,South,16.1,20.7,N/A,,Clear,170,2012-11-11 15:55:00
10:15 AM,81.5,60.6,49,29.86,10.0,SSE,15.0,20.7,N/A,,Clear,160,2012-11-11 16:15:00
10:35 AM,82.9,60.6,47,29.87,10.0,SSE,11.5,18.4,N/A,,Clear,150,2012-11-11 16:35:00
11:15 AM,84.7,58.8,41,29.87,10.0,South,12.7,18.4,N/A,,Clear,170,2012-11-11 17:15:00
11:35 AM,85.1,58.6,41,29.85,10.0,SSE,9.2,16.1,N/A,,Clear,150,2012-11-11 17:35:00
11:55 AM,86.0,57.9,38,29.85,10.0,South,10.4,17.3,N/A,,Clear,170,2012-11-11 17:55:00
12:15 PM,86.2,58.3,39,29.84,10.0,South,9.2,19.6,N/A,,Clear,180,2012-11-11 18:15:00
12:35 PM,87.4,57.7,36,29.83,10.0,SSE,13.8,21.9,N/A,,Clear,160,2012-11-11 18:35:00
12:55 PM,88.5,57.6,35,29.83,10.0,SSE,9.2,18.4,N/A,,Clear,160,2012-11-11 18:55:00
1:15 PM,88.5,57.9,35,29.82,10.0,South,8.1,-,N/A,,Clear,190,2012-11-11 19:15:00
1:35 PM,88.9,58.1,35,29.80,10.0,South,4.6,-,N/A,,Clear,170,2012-11-11 19:35:00
1:55 PM,89.6,57.4,34,29.80,10.0,South,11.5,-,N/A,,Clear,190,2012-11-11 19:55:00
2:35 PM,90.0,56.7,32,29.81,10.0,SSE,3.5,-,N/A,,Clear,150,2012-11-11 20:35:00
2:55 PM,90.5,55.9,31,29.81,10.0,Calm,Calm,-,N/A,,Clear,0,2012-11-11 20:55:00
3:35 PM,89.8,55.8,31,29.81,10.0,NW,3.5,-,N/A,,Clear,320,2012-11-11 21:35:00
3:55 PM,89.1,55.4,32,29.81,10.0,Calm,Calm,-,N/A,,Clear,0,2012-11-11 21:55:00
4:15 PM,90.1,55.6,31,29.82,10.0,Calm,Calm,-,N/A,,Clear,0,2012-11-11 22:15:00
4:35 PM,89.6,55.6,31,29.82,10.0,North,4.6,-,N/A,,Clear,350,2012-11-11 22:35:00
4:55 PM,89.1,55.2,32,29.83,10.0,NNW,6.9,-,N/A,,Clear,340,2012-11-11 22:55:00
5:15 PM,88.5,55.4,32,29.84,10.0,North,4.6,-,N/A,,Clear,350,2012-11-11 23:15:00
5:35 PM,86.7,55.8,35,29.85,10.0,North,3.5,-,N/A,,Clear,350,2012-11-11 23:35:00
5:55 PM,84.9,55.9,37,29.86,10.0,North,6.9,-,N/A,,Clear,350,2012-11-11 23:55:00
6:15 PM,83.3,56.8,40,29.87,10.0,North,4.6,-,N/A,,Clear,350,2012-11-12 00:15:00
6:35 PM,81.7,57.4,43,29.89,10.0,NNW,4.6,-,N/A,,Clear,340,2012-11-12 00:35:00
6:55 PM,80.1,57.6,46,29.91,10.0,NNW,4.6,-,N/A,,Clear,340,2012-11-12 00:55:00
7:15 PM,78.1,57.7,49,29.92,10.0,NNW,5.8,-,N/A,,Clear,340,2012-11-12 01:15:00
7:35 PM,78.8,59.0,51,29.94,10.0,North,6.9,-,N/A,,Clear,350,2012-11-12 01:35:00
7:55 PM,78.8,59.9,52,29.95,10.0,North,6.9,-,N/A,,Clear,350,2012-11-12 01:55:00
8:15 PM,77.9,60.3,54,29.97,10.0,NNW,6.9,-,N/A,,Clear,340,2012-11-12 02:15:00
8:35 PM,77.5,60.8,56,29.98,10.0,North,6.9,-,N/A,,Clear,360,2012-11-12 02:35:00
8:55 PM,78.1,61.2,56,29.99,10.0,North,5.8,-,N/A,,Clear,10,2012-11-12 02:55:00
9:15 PM,79.3,61.3,54,30.01,10.0,North,8.1,-,N/A,,Mostly Cloudy,10,2012-11-12 03:15:00
9:35 PM,79.5,61.3,54,30.02,10.0,North,8.1,-,N/A,,Overcast,360,2012-11-12 03:35:00
9:55 PM,78.8,61.7,56,30.03,10.0,North,9.2,-,N/A,,Overcast,350,2012-11-12 03:55:00
10:15 PM,77.9,61.7,57,30.04,10.0,North,8.1,-,N/A,,Overcast,360,2012-11-12 04:15:00
10:35 PM,77.0,61.7,59,30.06,10.0,NNW,3.5,-,N/A,,Overcast,330,2012-11-12 04:35:00
11:15 PM,76.1,62.1,62,30.07,10.0,NNW,6.9,-,N/A,,Overcast,330,2012-11-12 05:15:00
11:35 PM,76.3,61.2,59,30.08,10.0,NNW,12.7,23.0,N/A,,Overcast,340,2012-11-12 05:35:00
11:55 PM,75.4,54.0,47,30.09,10.0,North,16.1,21.9,N/A,,Overcast,350,2012-11-12 05:55:00